Location: Newark
(44.1667°N, 8.2500°E)
Time: 09:01:02
(UTC+00:00)

S-56A Canister/Altair - Pass Details

Date: 19 December 2019
Orbit: 634 x 2498 km, 38.9° (Epoch: 22 January)

Event Time Altitude Azimuth Distance (km) Brightness Sun altitude
Rises 07:00:52 0° 232° (SW) 4,781 11.4 -0.4°
Reaches altitude 10° 07:03:45 10° 228° (SW) 4,022 11.1 0.1°
Maximum altitude 07:14:37 55° 155° (SSE) 2,532 10.7 1.7°
Drops below altitude 10° 07:28:48 10° 84° (E) 5,152 12.5 3.7°
Sets 07:33:01 0° 80° (E) 6,178 12.8 4.3°
